Flag for U.S.A. Weather past 2 weeks in Shreveport, Louisiana, U.S.A.

Now
63 °F

Passing clouds.


Feels Like: 63 °F
Forecast: 63 / 82 °F
Wind: 5 mph from East

Location: Shreveport Regional Airport

Current Time: May 23, 2015 at 6:58:45 AM

Latest Report: May 23, 2015 at 5:56 AM


Visibility: 10 mi

Pressure: 30.16 "Hg

Humidity: 87%

Dew point: 59 °F

Location of ShreveportLocation

Historic Weather in Shreveport — Graph

°F

Shreveport temperature yesterday

Maximum temperature yesterday: 77 °F (at 4:56 PM)
Minimum temperature yesterday: 55 °F (at 4:56 AM)
Average temperature yesterday: 65 °F

Past Weeks' High & Low Weather Summary

 TemperatureHumidityPressure
High88 °F (May 9, 3:56 PM)100% (May 18, 12:59 PM)30.25 "Hg (May 18, 12:59 PM)
Low55 °F (May 22, 4:56 AM)51% (May 9, 5:56 PM)29.84 "Hg (May 9, 5:56 PM)
Average74 °F80%30.03 "Hg
* Reported May 8 4:56 AM — May 23 4:56 AM, Shreveport, Weather by CustomWeather, © 2015

Note: Actual official high and low records may vary slightly from our data, if they occured in-between our weather recording intervals... More about our weather records

Advertising

Shreveport weather history for previous 24 hours

 ConditionsComfort  
Time TempWeatherWind HumidityBarometerVisibility
4:56 AM
Sat, May 23
63 °FPassing clouds.3 mph90%30.15 "Hg10 mi
3:56 AM65 °FClear.No wind85%30.14 "Hg10 mi
2:56 AM66 °FClear.5 mph81%30.13 "Hg10 mi
1:56 AM66 °FClear.5 mph84%30.13 "Hg10 mi
12:56 AM67 °FPassing clouds.5 mph81%30.14 "Hg10 mi
11:56 PM
Fri, May 22
68 °FPassing clouds.3 mph82%30.15 "Hg10 mi
10:56 PM70 °FPartly cloudy.8 mph76%30.15 "Hg10 mi
9:56 PM72 °FMostly cloudy.7 mph73%30.15 "Hg10 mi
8:56 PM72 °FPartly sunny.7 mph73%30.14 "Hg10 mi
7:56 PM74 °FPartly sunny.5 mph69%30.14 "Hg10 mi
6:56 PM76 °FPartly sunny.6 mph62%30.11 "Hg10 mi
5:56 PM77 °FPassing clouds.9 mph60%30.12 "Hg10 mi
4:56 PM77 °FPassing clouds.7 mph58%30.13 "Hg10 mi
3:56 PM75 °FPassing clouds.6 mph60%30.15 "Hg10 mi
2:56 PM74 °FPassing clouds.7 mph62%30.15 "Hg10 mi
1:56 PM71 °FScattered clouds.7 mph63%30.18 "Hg10 mi
12:56 PM68 °FScattered clouds.7 mph63%30.18 "Hg10 mi
11:56 AM65 °FPartly sunny.7 mph66%30.21 "Hg10 mi
10:56 AM62 °FScattered clouds.7 mph70%30.22 "Hg10 mi
9:56 AM60 °FMostly cloudy.8 mph72%30.22 "Hg10 mi
8:56 AM59 °FMostly cloudy.6 mph78%30.22 "Hg10 mi
7:56 AM57 °FMore clouds than sun.13 mph81%30.21 "Hg10 mi
6:56 AM55 °FPartly cloudy.6 mph87%30.22 "Hg10 mi
Weather by CustomWeather, © 2015

See weather overviewHow to use our weather pages